Rome Ciampino, Italy

6:12 AM CEST on July 21, 2017 (GMT +0200)
Ciampino

Weather History for LIRA - October, 2011

Change the Weather History Date:

Saturday, October 8, 2011

  Actual Average Record
Temperature  
Mean Temperature 61 °F -  
Max Temperature 69 °F 68 °F 78 °F (2001)
Min Temperature 53 °F 49 °F 46 °F (1999)
Degree Days  
Heating Degree Days 4    
Growing Degree Days 11 (Base 50)    
Moisture  
Dew Point 33 °F    
Average Humidity 39    
Maximum Humidity 67    
Minimum Humidity 17    
Precipitation  
Precipitation 0.00 in 0.14 in - ()
Sea Level Pressure  
Sea Level Pressure 29.77 in    
Wind  
Wind Speed 7 mph ()    
Max Wind Speed 17 mph    
Max Gust Speed 29 mph    
Visibility 6.2 miles    
Events      
Averages and records for this station are not official NWS values.
T = Trace of Precipitation, MM = Missing Value Source: Averaged Metar Reports

Daily Weather History Graph

Daily Weather History Graph

Search for Another Location

Airport or City:

Trip Planner

Search our weather history database for the weather conditions in past years. The results will help you decide how hot, cold, wet, or windy it might be!

Date:

Astronomy

Oct. 08, 2011 Rise Set
Actual Time 7:13 AM CEST 6:40 PM CEST
Civil Twilight 6:45 AM CEST 7:08 PM CEST
Nautical Twilight 6:13 AM CEST 7:40 PM CEST
Astronomical Twilight 5:41 AM CEST 8:12 PM CEST
Moon 4:45 PM CEST (10/8) 3:41 AM CEST (10/8)
Length of Visible Light 12h 22m
Length of Day
11h 26m
Waxing Gibbous, 88% of the Moon is Illuminated
Oct 8
Waxing Gibbous
Oct 12
Full
Oct 20
Last Quarter
Oct 26
New
Nov 2
First Quarter

Hourly Weather History & Observations

Time (CEST) Temp. Dew Point Humidity Pressure Visibility Wind Dir Wind Speed Gust Speed Precip Events Conditions
12:15 AM 60.8 °F 46.4 °F 59% 29.74 in 6.2 mi NE 4.6 mph - N/A   Scattered Clouds
12:45 AM 60.8 °F 46.4 °F 59% 29.74 in 6.2 mi NNE 5.8 mph - N/A   Scattered Clouds
1:15 AM 60.8 °F 46.4 °F 59% 29.74 in 6.2 mi North 6.9 mph - N/A   Scattered Clouds
1:45 AM 59.0 °F 46.4 °F 63% 29.74 in 6.2 mi NE 5.8 mph - N/A   Scattered Clouds
2:15 AM 57.2 °F 44.6 °F 63% 29.74 in 6.2 mi North 4.6 mph - N/A   Scattered Clouds
2:45 AM 57.2 °F 44.6 °F 63% 29.77 in - North 4.6 mph - N/A   Clear
3:15 AM 55.4 °F 44.6 °F 67% 29.77 in - NNE 4.6 mph - N/A   Clear
3:45 AM 55.4 °F 41.0 °F 58% 29.77 in 6.2 mi NNE 6.9 mph - N/A   Partly Cloudy
4:15 AM 55.4 °F 41.0 °F 58% 29.77 in 6.2 mi North 6.9 mph - N/A   Partly Cloudy
4:45 AM 55.4 °F 41.0 °F 58% 29.74 in 6.2 mi NNE 8.1 mph - N/A   Partly Cloudy
5:15 AM 55.4 °F 41.0 °F 58% 29.74 in 6.2 mi NNE 6.9 mph - N/A   Scattered Clouds
5:45 AM 55.4 °F 41.0 °F 58% 29.74 in 6.2 mi NNE 6.9 mph - N/A   Mostly Cloudy
6:15 AM 55.4 °F 39.2 °F 54% 29.77 in 6.2 mi NNE 6.9 mph - N/A   Scattered Clouds
6:45 AM 55.4 °F 39.2 °F 54% 29.77 in 6.2 mi NNE 4.6 mph - N/A   Scattered Clouds
7:15 AM 55.4 °F 39.2 °F 54% 29.77 in 6.2 mi NE 5.8 mph - N/A   Scattered Clouds
7:45 AM 53.6 °F 39.2 °F 58% 29.77 in 6.2 mi NE 3.5 mph - N/A   Scattered Clouds
8:15 AM 53.6 °F 39.2 °F 58% 29.80 in 6.2 mi North 4.6 mph - N/A   Scattered Clouds
8:45 AM 57.2 °F 37.4 °F 48% 29.80 in 6.2 mi North 8.1 mph - N/A   Scattered Clouds
9:15 AM 57.2 °F 37.4 °F 48% 29.80 in 6.2 mi North 6.9 mph - N/A   Scattered Clouds
9:45 AM 60.8 °F 37.4 °F 42% 29.80 in 6.2 mi North 10.4 mph - N/A   Partly Cloudy
10:15 AM 62.6 °F 37.4 °F 39% 29.80 in 6.2 mi North 9.2 mph - N/A   Partly Cloudy
10:45 AM 62.6 °F 33.8 °F 34% 29.80 in 6.2 mi North 9.2 mph - N/A   Partly Cloudy
11:15 AM 66.2 °F 33.8 °F 30% 29.80 in 6.2 mi NNE 9.2 mph - N/A   Partly Cloudy
11:45 AM 66.2 °F 33.8 °F 30% 29.80 in 6.2 mi North 9.2 mph - N/A   Partly Cloudy
12:15 PM 66.2 °F 32.0 °F 28% 29.80 in 6.2 mi North 9.2 mph - N/A   Partly Cloudy
12:45 PM 68.0 °F 30.2 °F 24% 29.80 in 6.2 mi NNW 9.2 mph - N/A   Partly Cloudy
1:15 PM 68.0 °F 32.0 °F 26% 29.80 in 6.2 mi NNW 10.4 mph - N/A   Partly Cloudy
1:45 PM 68.0 °F 28.4 °F 23% 29.77 in 6.2 mi North 8.1 mph - N/A   Scattered Clouds
2:15 PM 69.8 °F 30.2 °F 23% 29.77 in 6.2 mi North 13.8 mph - N/A   Scattered Clouds
2:45 PM 68.0 °F 23.0 °F 18% 29.77 in 6.2 mi NNW 11.5 mph - N/A   Scattered Clouds
3:15 PM 69.8 °F 23.0 °F 17% 29.77 in 6.2 mi NW 15.0 mph 26.5 mph N/A   Scattered Clouds
3:45 PM 68.0 °F 26.6 °F 21% 29.77 in 6.2 mi NW 16.1 mph - N/A   Partly Cloudy
4:15 PM 68.0 °F 30.2 °F 24% 29.77 in 6.2 mi NNW 17.3 mph 28.8 mph N/A   Partly Cloudy
4:45 PM 68.0 °F 26.6 °F 21% 29.77 in 6.2 mi NNW 17.3 mph - N/A   Partly Cloudy
5:15 PM 68.0 °F 23.0 °F 18% 29.74 in 6.2 mi North 17.3 mph - N/A   Partly Cloudy
5:45 PM 68.0 °F 21.2 °F 17% 29.74 in 6.2 mi North 15.0 mph - N/A   Partly Cloudy
6:15 PM 66.2 °F 21.2 °F 18% 29.77 in 6.2 mi NNW 11.5 mph - N/A   Partly Cloudy
6:45 PM 64.4 °F 19.4 °F 18% 29.77 in 6.2 mi NNW 8.1 mph - N/A   Partly Cloudy
7:15 PM 62.6 °F 19.4 °F 19% 29.77 in 6.2 mi NNW 6.9 mph - N/A   Partly Cloudy
7:45 PM 60.8 °F 21.2 °F 22% 29.77 in 6.2 mi NNW 2.3 mph - N/A   Partly Cloudy
8:15 PM 59.0 °F 19.4 °F 22% 29.74 in 6.2 mi WNW 3.5 mph - N/A   Partly Cloudy
8:45 PM 59.0 °F 24.8 °F 27% 29.77 in 6.2 mi NNE 3.5 mph - N/A   Partly Cloudy
9:15 PM 59.0 °F 24.8 °F 27% 29.77 in 6.2 mi NE 3.5 mph - N/A   Partly Cloudy
9:45 PM 57.2 °F 24.8 °F 29% 29.77 in 6.2 mi ENE 2.3 mph - N/A   Partly Cloudy
10:15 PM 57.2 °F 23.0 °F 27% 29.77 in 6.2 mi NNE 2.3 mph - N/A   Partly Cloudy
10:45 PM 55.4 °F 28.4 °F 36% 29.77 in 6.2 mi NE 3.5 mph - N/A   Partly Cloudy
11:15 PM 55.4 °F 28.4 °F 36% 29.77 in - NNE 2.3 mph - N/A   Clear
11:45 PM 55.4 °F 30.2 °F 38% 29.77 in - NNW 4.6 mph - N/A   Clear